Other Surface Observations
Issued by NWS Tucson, AZ

Home | Current Version | Previous Version | Text Only | Print | Product List | Glossary On
Versions: 1 2 3 4 5 6 7 8 9 10 11 12 13 14 15 16 17 18 19 20 21 22 23 24 25 26 27 28 29 30 31 32 33 34 35 36 37 38 39 40 41 42 43 44 45 46 47 48 49 50
000
SXUS55 KTWC 301915
OSOTWC

WEATHER ROUNDUP FOR SOUTHEAST ARIZONA
NATIONAL WEATHER SERVICE TUCSON AZ
1215 PM MST SAT MAY 30 2015

AZZ504>506-514-302015-
LOCATION       SKY/WX    TMP DP  RH WIND       PRES   REMARKS
TUCSON         SUNNY     95  28   9 CALM      30.02F
DAVIS-MONTHAN  SUNNY     93  30  10 VRB3      30.00F
CHILDRENS PARK N/A       89  34  14 SE2               PIMA CO DEQ
ALVERNON/22ND  N/A      N/A N/A N/A N/A               PIMA CO DEQ
CHERRY/GLENN   N/A      N/A N/A N/A N/A               PIMA CO DEQ
TANGERINE      N/A       91 N/A N/A S2                PIMA CO DEQ
CONTL RANCH    N/A       93  33  12 S1                PIMA CO DEQ
GRANT/1ST      N/A       90  31  12 SE1               PIMA CO DEQ
CRAYCROFT/22ND N/A      N/A N/A N/A N/A               PIMA CO DEQ
GOLFLINKS/KOLB N/A      N/A N/A N/A N/A               PIMA CO DEQ
AJO/12TH       N/A       90  33  13 SE1               PIMA CO DEQ
SAGUARO EAST   N/A      N/A N/A N/A N/A               PIMA CO DEQ
FAIRGROUNDS    N/A       90 N/A N/A SW4               PIMA CO DEQ
SAGUARO        N/A       96  33  11 SW2               *SABINO CYN
SAN CARLOS     N/A       97  34  11 SE7G13            *SAN CARLOS
GREEN VALLEY   N/A       90  31  12 SE3               PIMA CO DEQ
HORSE CAMP CYN N/A       89  25  10 SE8G14            *ARAVAIPA CYN
RINCON MTNS    N/A       77  24  14 SE2G12            *NR MANNING CAMP
$$

AZZ509>511-302015-
LOCATION       SKY/WX    TMP DP  RH WIND       PRES   REMARKS
SAFFORD        SUNNY     94  28   9 S9        30.03F
STRAY HORSE    N/A       73  30  20 SW7G11            *
TRAIL CABIN    N/A       78  28  16 SE4G12            *N OF GRANVILLE
BLACK HILLS    N/A       94  29  10 S8G17             *N OF FT THOMAS
DRY LAKE       N/A       78  31  18 S4G14             *NATANES MTNS
NOON CREEK     N/A       87  30  13 E5G15             *PINALENO MTNS
COLUMBINE      N/A       66  17  15 S5G12             *PINALENO MTNS
GUTHRIE        N/A       80  27  14 S7G21             *SW OF GUTHRIE
$$

AZZ502-503-513-302015-
LOCATION       SKY/WX    TMP DP  RH WIND       PRES   REMARKS
NOGALES        SUNNY     93  29  10 S8        30.08F
SELLS          N/A       96  33  11 SW7G12            *
SASABE         N/A       93  31  11 E5                *ALTAR VLY
HOPKINS        N/A       80  34  19 SW8G14            *SANTA RITA MTNS
CARR CYN       N/A       87  24  10 NE5G11            *W OF HEREFORD
$$

AZZ507-508-512-302015-
LOCATION       SKY/WX    TMP DP  RH WIND       PRES   REMARKS
SIERRA VISTA   SUNNY     88  23   9 N8        30.15F
DOUGLAS        SUNNY     91  25   9 SE13      30.10F
EMPIRE MTNS    N/A       88  27  11 NE7G19            *LAS CIENEGAS NCA
MULESHOE RANCH N/A       89  25  10 E5G15             *PRESERVE
HEADQUARTERS   N/A       85  30  14 E8G17             *CHIRICAHUA MTNS
$$

.............................NOTES.............................
THIS IS AN AUTOMATED COLLECTIVE WITH MINIMAL QUALITY CONTROL.
PIMA CO DEQ SITES HAVE NONSTANDARD WIND SENSOR HEIGHTS.
PIMA CO DEQ SITES DO NOT REPORT WIND GUSTS.
* INDICATES WIND SENSORS LOCATED AT 20 FEET INSTEAD OF 33 FEET.
..............................KEY..............................
SKY/WX - SKY CONDITION/WEATHER
TMP    - TEMPERATURE IN FAHRENHEIT
DP     - DEWPOINT IN FAHRENHEIT
RH     - RELATIVE HUMIDITY IN PERCENT
WIND   - DIRECTION AND SPEED IN MILES PER HOUR (MPH)
VRB    - VARIABLE WIND DIRECTION
PRES   - MEAN SEA LEVEL PRESSURE IN INCHES OF MERCURY
         F - FALLING PRESSURE   R - RISING PRESSURE
         S - STEADY PRESSURE
VSB    - VISIBILITY IN MILES
HX     - HEAT INDEX IN FAHRENHEIT
WCI    - WIND CHILL INDEX IN FAHRENHEIT
N/A    - NOT AVAILABLE
AFB    - AIR FORCE BASE
         DAVIS-MONTHAN IS DAVIS-MONTHAN AIR FORCE BASE
CYN    - CANYON
MTNS   - MOUNTAINS
NCA    - NATIONAL CONSERVATION AREA
NR     - NEAR
VLY    - VALLEY
CONTL  - CONTINENTAL
PIMA CO DEQ - PIMA COUNTY DEPT OF ENVIRONMENTAL QUALITY



USA.gov is the U.S. government's official web portal to all federal, state and local government web resources and services.